[[{"header":{"parameterUnit":"m.s-1","parameterCategory":1,"la1":30.2991,"la2":30.254,"lo1":-89.0895,"lo2":-89.0444,"dy":0.0017,"dx":0.0017,"nx":28,"ny":28,"refTime":"2024-07-29T03:00:00:Z","depth":0,"parameterNumber":2,"parameterNumberName":"U-component_of_WINDS"},"data":[0,0,0,0,0,0,0,0,0,0,0,0,0,0,0,0,0,0,0,0,0,0,0,0,0,0,0,0,0,0,0,0,0,0,0,0,0,0,0,0,0,0,0,0,0,0,0,0,0,0,0,0,0,0,0,0,0,0,0.8425,0.8425,0,0.8382,0.8381,0.8381,0.8291,0.829,0.8288,0.8286,0.8245,0.8245,0.8246,0,0,0,0,0,0,0,0,0,0,0,0,0,0.8432,0.8433,0.8425,0.8425,0.8424,0.8382,0.8381,0.838,0.8292,0.8289,0.8287,0.8285,0.8245,0.8245,0.8246,0,0,0,0,0,0,0,0,0,0,0,0,0,0.8413,0.8433,0.8425,0.8375,0.837,0.8382,0.8381,0.838,0.8292,0.8289,0.8287,0.8284,0.8244,0.8245,0.8246,0.8305,0,0,0.8249,0.8249,0,0,0,0,0,0,0,0,0.8414,0.8413,0.8383,0.8378,0.8373,0.8339,0.8368,0.8355,0.8293,0.8322,0.8286,0.8283,0.8279,0.8276,0.8274,0.8303,0.8301,0.8249,0.8249,0.825,0.825,0,0,0,0,0,0,0,0.8416,0.8414,0.8408,0.8382,0.8376,0.8354,0.8348,0.8365,0.8316,0.8319,0.8312,0.8308,0.8275,0.8274,0.8273,0.8301,0.8249,0.8249,0.825,0.825,0.8373,0.8375,0,0,0,0,0,0,0.8424,0.8416,0.8409,0.8407,0.8387,0.8356,0.835,0.8353,0.8315,0.8307,0.8311,0.8304,0.8273,0.8272,0.8271,0.8336,0.825,0.825,0.8251,0.837,0.8373,0.8376,0,0,0,0,0,0,0.8425,0.8424,0.8411,0.8409,0.8406,0.8359,0.8363,0.8353,0.8351,0.8309,0.83,0.8318,0.8271,0.827,0.8296,0.8333,0.8251,0.8252,0.8367,0.8371,0.8375,0.8467,0,0,0,0,0,0,0.8425,0.8425,0.8447,0.8411,0.8407,0.8438,0.8365,0.8354,0.8353,0.8344,0.8313,0.8306,0.8269,0.8295,0.8297,0.8333,0.8252,0.8363,0.8369,0.8374,0.8461,0.8474,0.8486,0,0,0,0,0,0.8426,0.8476,0.8449,0.8449,0.8433,0.844,0.8438,0.8393,0.8356,0.8378,0.835,0.8307,0.8329,0.8299,0.83,0.8337,0.8361,0.8367,0.8373,0.8455,0.8472,0.8485,0,0,0,0,0,0,0.8521,0.8471,0.844,0.848,0.8465,0.8425,0.8451,0.8412,0.8408,0.84,0.8346,0.834,0.8374,0.8358,0.8326,0.839,0.8338,0.8344,0.84,0.8415,0.8427,0.843,0.8253,0,0,0,0,0,0.8546,0.8555,0.8511,0.8551,0.8544,0.8499,0.8501,0.8467,0.845,0.8443,0.8417,0.8403,0.8406,0.8409,0.841,0.8458,0.8449,0.8483,0.8495,0.8506,0.8512,0.8534,0.8548,0.8397,0.8397,0.8396,0,0,0.8599,0.8573,0.8582,0.8569,0.8553,0.8564,0.8495,0.851,0.8517,0.8446,0.8469,0.8449,0.8429,0.8466,0.8481,0.8453,0.8552,0.8514,0.8522,0.8523,0.8542,0.8556,0.8569,0.8401,0.84,0.8399,0,0,0.8701,0.8682,0.8712,0.8697,0.8673,0.8642,0.8649,0.8614,0.8598,0.862,0.8566,0.8574,0.8581,0.8568,0.8562,0.8655,0.8615,0.8657,0.8722,0.8744,0.8756,0.8766,0.8799,0.8811,0.8664,0.8664,0.8664,0,0.877,0.8784,0.8733,0.875,0.8745,0.8679,0.8708,0.8696,0.8675,0.8673,0.8642,0.8647,0.863,0.8661,0.8684,0.8682,0.8688,0.8661,0.8758,0.8768,0.8777,0.8807,0.882,0.8669,0.8669,0.8668,0.8668,0,0.8869,0.8879,0.8906,0.8884,0.8882,0.8906,0.8858,0.8863,0.8829,0.8801,0.8823,0.8798,0.8791,0.8796,0.8765,0.8823,0.8806,0.8768,0.8714,0.8798,0.8825,0.8836,0.8677,0.8675,0.8673,0.8672,0,0,0.9032,0.8979,0.899,0.8978,0.8945,0.8952,0.8972,0.8964,0.8968,0.8954,0.8969,0.8975,0.8937,0.8931,0.8897,0.8916,0.8989,0.8874,0.8873,0.8896,0.9051,0.908,0.9095,0.8962,0.8964,0.8966,0.9052,0,0.9127,0.9156,0.911,0.915,0.9158,0.9094,0.911,0.9092,0.9066,0.9068,0.9039,0.9044,0.8995,0.899,0.9006,0.8977,0.902,0.897,0.8975,0.8976,0.8983,0.9109,0.9141,0.9224,0.9063,0.9065,0.9066,0,0.9241,0.9231,0.9272,0.9233,0.9235,0.9251,0.9238,0.9241,0.9219,0.9198,0.9189,0.9147,0.9163,0.911,0.9131,0.9098,0.9097,0.9083,0.9085,0.9084,0.9027,0.9112,0.9249,0.9262,0.9082,0.9081,0.908,0,0.9355,0.9351,0.9374,0.9366,0.9323,0.9335,0.9318,0.9292,0.9289,0.9278,0.9275,0.9267,0.9263,0.9257,0.9214,0.9179,0.924,0.9184,0.9223,0.9224,0.9239,0.9239,0.9379,0.9239,0.9239,0.9238,0.9238,0,0.9465,0.9493,0.9424,0.9439,0.9467,0.9413,0.9442,0.9418,0.9395,0.9403,0.9348,0.9357,0.9299,0.9302,0.9268,0.9289,0.9288,0.9272,0.9263,0.9277,0.9279,0.9276,0.9269,0.9242,0.9241,0.924,0.924,0,0.9598,0.9553,0.9574,0.953,0.9519,0.9542,0.9504,0.9515,0.9484,0.9495,0.9494,0.9446,0.9446,0.9401,0.9393,0.937,0.9406,0.9387,0.9414,0.9408,0.9449,0.9446,0.9592,0.9608,0.9458,0.946,0.9461,0,0.9672,0.9691,0.9647,0.9648,0.9633,0.9635,0.9631,0.9577,0.9575,0.9549,0.9563,0.9558,0.9551,0.9554,0.9519,0.9511,0.9491,0.9542,0.949,0.9502,0.9491,0.949,0.9491,0.9554,0.9556,0.9558,0.9559,0,0.9806,0.9782,0.9778,0.9765,0.9761,0.9749,0.9734,0.9738,0.9679,0.9679,0.9677,0.9672,0.9662,0.9657,0.9643,0.9624,0.9582,0.9575,0.9584,0.9599,0.9614,0.9605,0.9444,0.9573,0.9571,0.957,0.9569,0.9569,0.9911,0.9924,0.9895,0.9891,0.9873,0.9859,0.9866,0.9835,0.9832,0.9818,0.9787,0.979,0.9764,0.9739,0.9725,0.9726,0.9701,0.9713,0.9717,0.9721,0.9728,0.9613,0.9724,0.9723,0.9723,0.9722,0.9722,0,1.0042,1.0019,1.0016,0.9995,0.9992,0.9949,0.9929,0.993,0.9932,0.9911,0.9905,0.9902,0.9896,0.9859,0.9849,0.9857,0.9837,0.9856,0.9856,0.9852,0.9752,0.9746,0.9873,0.9873,0.9872,0.9872,0.9872,0.9872,1.011,1.0129,1.0102,1.0111,1.0087,1.0089,1.008,1.0067,1.0049,1.0048,1.0042,1.0017,0.9989,0.9976,0.9969,0.9958,0.9957,0.9983,0.9965,0.9874,0.9859,0.9845,0.9838,0.9983,0.9983,1.0064,1.0065,1.0066]},{"header":{"parameterUnit":"m.s-1","parameterCategory":1,"la1":30.2991,"la2":30.254,"lo1":-89.0895,"lo2":-89.0444,"dy":0.0017,"dx":0.0017,"nx":28,"ny":28,"refTime":"2024-07-29T03:00:00:Z","depth":0,"parameterNumber":3,"parameterNumberName":"V-component_of_WINDS"},"data":[0,0,0,0,0,0,0,0,0,0,0,0,0,0,0,0,0,0,0,0,0,0,0,0,0,0,0,0,0,0,0,0,0,0,0,0,0,0,0,0,0,0,0,0,0,0,0,0,0,0,0,0,0,0,0,0,0,0,4.1257,4.1259,0,4.1408,4.141,4.1412,4.1406,4.1404,4.1402,4.14,4.1552,4.1558,4.1564,0,0,0,0,0,0,0,0,0,0,0,0,0,4.0961,4.0967,4.1257,4.1259,4.1261,4.1408,4.141,4.1412,4.1406,4.1404,4.1401,4.1399,4.155,4.1558,4.1565,0,0,0,0,0,0,0,0,0,0,0,0,0,4.1099,4.0968,4.1257,4.1276,4.1279,4.1408,4.141,4.1413,4.1407,4.1404,4.14,4.1397,4.1548,4.1557,4.1566,4.1685,0,0,4.1593,4.1597,0,0,0,0,0,0,0,0,4.1091,4.111,4.1271,4.1275,4.1279,4.1385,4.1362,4.1504,4.1408,4.1358,4.14,4.1396,4.1499,4.1512,4.1547,4.1692,4.1699,4.1594,4.16,4.1604,4.1606,0,0,0,0,0,0,0,4.1081,4.1103,4.1317,4.1273,4.1278,4.1276,4.1292,4.1389,4.1445,4.1362,4.1362,4.138,4.1501,4.1539,4.1551,4.1701,4.1594,4.1602,4.1608,4.1611,4.195,4.1953,0,0,0,0,0,0,4.1068,4.1095,4.1312,4.1321,4.1175,4.1284,4.1302,4.1354,4.1443,4.1454,4.1383,4.1379,4.1525,4.154,4.1556,4.17,4.1604,4.1612,4.1617,4.1946,4.195,4.1954,0,0,0,0,0,0,4.1062,4.1088,4.1306,4.1208,4.1236,4.1292,4.1351,4.1359,4.1397,4.1459,4.1469,4.1412,4.1523,4.1543,4.1653,4.1706,4.1616,4.1624,4.1942,4.1947,4.1952,4.199,0,0,0,0,0,0,4.1053,4.1085,4.1132,4.121,4.1241,4.1401,4.1354,4.1364,4.1413,4.141,4.1489,4.1499,4.1522,4.1639,4.1662,4.1716,4.1631,4.1937,4.1944,4.1951,4.1985,4.1996,4.2006,0,0,0,0,0,4.1043,4.1136,4.1134,4.116,4.1301,4.1404,4.1422,4.1448,4.1417,4.1463,4.1503,4.1496,4.1696,4.1651,4.1676,4.1734,4.1934,4.1942,4.195,4.198,4.1994,4.2006,0,0,0,0,0,0,4.1063,4.1147,4.1145,4.1267,4.1329,4.1403,4.1463,4.1462,4.1533,4.1527,4.1555,4.1573,4.1682,4.1719,4.1667,4.1853,4.1811,4.1825,4.1825,4.1839,4.185,4.1838,4.1639,0,0,0,0,0,4.1082,4.116,4.1228,4.1329,4.136,4.1406,4.1452,4.1466,4.1531,4.1557,4.1605,4.1667,4.1744,4.1794,4.1868,4.199,4.2006,4.2043,4.2053,4.2062,4.2073,4.2139,4.2155,4.198,4.198,4.198,0,0,4.1121,4.1177,4.1224,4.1335,4.1384,4.1463,4.1428,4.1513,4.1571,4.1569,4.1675,4.1713,4.1784,4.19,4.1953,4.1934,4.2125,4.2072,4.2079,4.2085,4.2149,4.2165,4.218,4.1986,4.1985,4.1984,0,0,4.1233,4.1283,4.1372,4.1422,4.1497,4.1527,4.1548,4.1623,4.1648,4.1755,4.1754,4.1824,4.1956,4.2006,4.2049,4.2179,4.2175,4.2203,4.2259,4.2323,4.2337,4.2349,4.2394,4.241,4.2214,4.2214,4.2214,0,4.1272,4.1391,4.1417,4.1503,4.1551,4.1553,4.1643,4.169,4.1785,4.1818,4.1795,4.196,4.2008,4.2135,4.2167,4.2202,4.2226,4.2193,4.2333,4.2345,4.2357,4.24,4.2417,4.2216,4.2216,4.2216,4.2216,0,4.1435,4.1518,4.158,4.1672,4.1727,4.1814,4.1853,4.1906,4.1915,4.1947,4.2055,4.2113,4.2198,4.223,4.224,4.2358,4.2344,4.2327,4.2285,4.2376,4.2417,4.2434,4.2221,4.222,4.2219,4.2218,0,0,4.1563,4.1668,4.1691,4.1732,4.1815,4.1879,4.1965,4.2049,4.2093,4.2159,4.2231,4.2343,4.2327,4.2376,4.2392,4.2448,4.2545,4.2424,4.2426,4.2443,4.2677,4.2689,4.2707,4.2543,4.2547,4.2549,4.2671,0,4.1682,4.1836,4.1862,4.1997,4.2072,4.2075,4.2151,4.2209,4.2241,4.2309,4.2345,4.2423,4.2397,4.2426,4.2482,4.2522,4.2592,4.2513,4.2609,4.2613,4.259,4.2729,4.2742,4.2854,4.2687,4.269,4.2692,0,4.1841,4.1911,4.2053,4.2125,4.2157,4.2225,4.2303,4.2369,4.2435,4.2454,4.2508,4.2517,4.2606,4.2561,4.2683,4.2629,4.267,4.2695,4.27,4.2708,4.2657,4.274,4.289,4.2906,4.2718,4.2716,4.2714,0,4.1918,4.2048,4.2149,4.2185,4.2271,4.2318,4.2356,4.2419,4.2467,4.2536,4.2567,4.2645,4.2687,4.2747,4.2776,4.2741,4.2896,4.2854,4.2913,4.2912,4.2945,4.2942,4.3102,4.2974,4.2973,4.2973,4.2973,0,4.2048,4.2134,4.2185,4.2247,4.2344,4.2372,4.2467,4.2504,4.256,4.2628,4.2636,4.27,4.2736,4.2805,4.2829,4.2925,4.2945,4.2962,4.2967,4.296,4.2958,4.2986,4.2979,4.2977,4.2976,4.2976,4.2975,0,4.215,4.2188,4.2298,4.2371,4.2391,4.2459,4.252,4.258,4.2612,4.2699,4.2721,4.2771,4.2853,4.2888,4.2989,4.3005,4.3115,4.3115,4.3092,4.3094,4.3151,4.3144,4.3333,4.3359,4.3215,4.3216,4.3217,0,4.2229,4.2295,4.2375,4.2422,4.2461,4.2536,4.2586,4.2616,4.2667,4.2747,4.2797,4.2879,4.2946,4.3077,4.3121,4.3198,4.3199,4.326,4.321,4.3202,4.3198,4.3193,4.3199,4.3268,4.327,4.3271,4.3272,0,4.2365,4.238,4.2451,4.2529,4.2588,4.265,4.2711,4.2749,4.2789,4.2846,4.293,4.2982,4.3084,4.3165,4.3245,4.3283,4.3284,4.3287,4.3305,4.3298,4.3282,4.329,4.3115,4.3283,4.3282,4.3281,4.328,4.328,4.2457,4.2516,4.258,4.2659,4.2708,4.2765,4.2825,4.2864,4.2935,4.3021,4.3035,4.3124,4.3187,4.3294,4.3335,4.3405,4.3389,4.3415,4.3421,4.3427,4.343,4.3272,4.3419,4.3419,4.3419,4.3419,4.3418,0,4.2592,4.2634,4.2706,4.2791,4.2853,4.2849,4.2916,4.2968,4.3046,4.3105,4.3171,4.3267,4.3345,4.3396,4.3475,4.3521,4.3523,4.354,4.3536,4.3545,4.344,4.3416,4.3537,4.3537,4.3537,4.3537,4.3537,4.3537,4.2669,4.2768,4.279,4.2913,4.2954,4.3042,4.308,4.3132,4.318,4.3286,4.3351,4.3384,4.344,4.3523,4.3594,4.3607,4.3635,4.3653,4.3665,4.3565,4.3553,4.3541,4.3518,4.3659,4.3659,4.3764,4.3765,4.3766]}]]